Regional Weather Roundup
Issued by NWS Midland/Odessa, TX

Home | Current Version | Previous Version | Text Only | Print | Product List | Glossary On
Versions: 1 2 3 4 5 6 7 8 9 10 11 12 13 14 15 16 17 18 19 20 21 22 23 24 25 26 27 28 29 30 31 32 33 34 35 36 37 38 39 40 41 42 43 44 45 46 47 48 49 50
000
ASUS44 KMAF 032010
RWRMAF
MIDLAND AREA WEATHER ROUNDUP
NATIONAL WEATHER SERVICE MIDLAND TX
300 PM CDT FRI JUL 03 2015

...IN SOUTHWEST TEXAS AND SOUTHEAST NEW MEXICO...

CITY           SKY/WX    TMP DP  RH WIND       PRES   REMARKS
ALPINE         MOSUNNY   85  57  38 NE13G22   30.14F
ANDREWS        FAIR      88  62  41 E13G20    30.04F
ARTESIA        CLOUDY    84  59  42 NW21G28   30.06F
BIG SPRING     MOSUNNY   87  59  39 S5        30.03F
CARLSBAD       PTSUNNY   90  60  36 VRB5      30.03S
DRYDEN           N/A     86  67  52 VRB6      29.96F
FORT STOCKTON  PTSUNNY   85  64  49 E14G20    30.02F
GUAD PASS      PTSUNNY   81  58  45 NE25G36   30.16F
HOBBS          PTSUNNY   90  59  35 E12G20    30.04F
MARFA          MOSUNNY   84  57  39 NE10G20   30.13F
MIDLAND AIRPK  MOSUNNY   88  63  42 E9        30.03F
MIDLAND INTL   MOSUNNY   86  65  49 E9        30.02F
ODESSA         MOSUNNY   85  63  47 E6G18     30.03F
PECOS          MOSUNNY   89  61  38 E13       29.99F
PRESIDIO       NOT AVBL
SEMINOLE       CLOUDY    88  60  38 E10G17    30.04F
SNYDER         PTSUNNY   83  67  59 SE7       30.03S
WINK           MOSUNNY   89  62  40 SE13G18   29.99F
$$
...OTHER STATIONS IN TEXAS...

CITY           SKY/WX    TMP DP  RH WIND       PRES   REMARKS
ABILENE        PTSUNNY   89  63  41 SW13      29.99F
AMARILLO       SUNNY     86  57  37 SE10      30.07F
AUSTIN         PTSUNNY   90  71  53 S8        29.97F
BROWNSVILLE    PTSUNNY   88  75  65 SE18G26   29.93F
CORPUS CHRISTI PTSUNNY   89  74  60 SE17G25   29.95F
DALLAS FTW     PTSUNNY   91  67  44 SW13      29.94F
DEL RIO        MOSUNNY   88  67  49 SE14G23   29.91F
EL PASO        PTSUNNY   91  55  29 N12       30.02F
HOUSTON INT    CLOUDY    93  73  52 S14G22    29.98S THUNDER HX 102
LUBBOCK        CLOUDY    87  62  43 NE8       30.04F
SAN ANGELO     SUNNY     89  64  43 S8        29.98F
SAN ANTONIO    PTSUNNY   89  70  53 S10G18    29.98F
WACO           CLOUDY    90  68  48 S12       29.96F
WICHITA FALLS  NOT AVBL
$$
...OTHER LOCATIONS IN NEW MEXICO...

CITY           SKY/WX    TMP DP  RH WIND       PRES   REMARKS
ALAMAGORDO     MOSUNNY   90  55  31 E7        30.05F
ALBUQUERQUE    PTSUNNY   83  55  38 NE5       30.15F
CANNON AFB     PTSUNNY   83  60  44 VRB5      30.11F
CLOVIS         PTSUNNY   81  61  50 SW6         N/A
HOLLOMAN AFB   MOSUNNY   89  55  31 NW6       30.03F
ROSWELL        CLOUDY    78  63  59 NW10      30.07F
RUIDOSO        PTSUNNY   70  55  60 S5        30.29F
SANTA FE       PTSUNNY   81  52  36 VRB5      30.21F
TRUTH OR CONSE SUNNY     88  55  32 VRB3      30.08F
TUCUMCARI      MOSUNNY   87  59  38 VRB6      30.08F
$$



USA.gov is the U.S. government's official web portal to all federal, state and local government web resources and services.